| time (UTC) | temp C | wind direction | speed KPH | gust KPH | rain 1hr cm | rain 24hr cm | rain mn cm | humidity % | barometer mb |
| 20260502181403 | 20 | 320 | 0.0 | 4.8 | 0.00 | 0.00 | 0.00 | 77 | 1012.4 |
| 20260502180833 | 21 | 184 | 0.0 | 1.6 | 0.00 | 0.00 | 0.00 | 77 | 1012.4 |
| 20260502180303 | 21 | 261 | 0.0 | 0.0 | 0.00 | 0.00 | 0.00 | 75 | 1012.5 |
| 20260502170233 | 22 | 295 | 0.0 | 1.6 | 0.00 | 0.00 | 0.00 | 62 | 1012.8 |
| 20260502164033 | 22 | 318 | 1.6 | 4.8 | 0.00 | 0.00 | 0.00 | 56 | 1013.0 |
| 20260502163503 | 22 | 251 | 1.6 | 3.2 | 0.00 | 0.00 | 0.00 | 57 | 1013.0 |
| 20260502162933 | 22 | 341 | 3.2 | 4.8 | 0.00 | 0.00 | 0.00 | 57 | 1013.0 |
| 20260502162403 | 22 | 201 | 1.6 | 3.2 | 0.00 | 0.00 | 0.00 | 57 | 1013.1 |
| 20260502161834 | 23 | 320 | 3.2 | 8.0 | 0.00 | 0.00 | 0.00 | 56 | 1013.1 |
| 20260502161304 | 23 | 171 | 1.6 | 4.8 | 0.00 | 0.00 | 0.00 | 56 | 1013.2 |
| 20260502160733 | 23 | 309 | 4.8 | 8.0 | 0.00 | 0.00 | 0.00 | 56 | 1013.2 |
| 20260502160203 | 23 | 243 | 6.4 | 16.1 | 0.00 | 0.00 | 0.00 | 58 | 1013.3 |
| 20260502152333 | 23 | 300 | 3.2 | 3.2 | 0.00 | 0.00 | 0.00 | 56 | 1013.9 |
| 20260502151803 | 23 | 274 | 1.6 | 6.4 | 0.00 | 0.00 | 0.00 | 56 | 1013.9 |
| 20260502151234 | 23 | 311 | 1.6 | 3.2 | 0.00 | 0.00 | 0.00 | 55 | 1013.9 |
| 20260502150703 | 23 | 323 | 3.2 | 6.4 | 0.00 | 0.00 | 0.00 | 56 | 1014.0 |
| 20260502150133 | 23 | 251 | 3.2 | 8.0 | 0.00 | 0.00 | 0.00 | 56 | 1014.0 |
| 20260502140103 | 22 | 269 | 4.8 | 11.3 | 0.00 | 0.00 | 0.00 | 55 | 1015.1 |
| 20260502130603 | 25 | 205 | 8.0 | 29.0 | 0.00 | 0.00 | 0.00 | 47 | 1014.9 |
| 20260502123303 | 26 | 222 | 3.2 | 6.4 | 0.00 | 0.00 | 0.00 | 42 | 1015.4 |
| 20260502122733 | 26 | 208 | 3.2 | 11.3 | 0.00 | 0.00 | 0.00 | 42 | 1015.4 |
| 20260502122203 | 26 | 224 | 0.0 | 1.6 | 0.00 | 0.00 | 0.00 | 42 | 1015.5 |
| 20260502121633 | 26 | 194 | 0.0 | 3.2 | 0.00 | 0.00 | 0.00 | 43 | 1015.6 |
| 20260502121103 | 26 | 186 | 6.4 | 14.5 | 0.00 | 0.00 | 0.00 | 44 | 1015.7 |
| 20260502120533 | 26 | 200 | 3.2 | 6.4 | 0.00 | 0.00 | 0.00 | 43 | 1015.8 |
| 20260502115433 | 26 | 184 | 1.6 | 9.7 | 0.00 | 0.00 | 0.00 | 46 | 1016.1 |
| 20260502114903 | 26 | 160 | 6.4 | 25.7 | 0.00 | 0.00 | 0.00 | 44 | 1016.2 |
| 20260502114334 | 25 | 227 | 6.4 | 11.3 | 0.00 | 0.00 | 0.00 | 45 | 1016.2 |
| 20260502113803 | 25 | 150 | 3.2 | 8.0 | 0.00 | 0.00 | 0.00 | 43 | 1016.3 |
| 20260502113233 | 25 | 179 | 3.2 | 6.4 | 0.00 | 0.00 | 0.00 | 43 | 1016.3 |
| 20260502112704 | 25 | 209 | 3.2 | 9.7 | 0.00 | 0.00 | 0.00 | 44 | 1016.4 |
| 20260502112133 | 25 | 197 | 3.2 | 14.5 | 0.00 | 0.00 | 0.00 | 43 | 1016.5 |
| 20260502111603 | 25 | 194 | 1.6 | 3.2 | 0.00 | 0.00 | 0.00 | 43 | 1016.6 |
| 20260502111034 | 25 | 129 | 0.0 | 4.8 | 0.00 | 0.00 | 0.00 | 45 | 1016.6 |
| 20260502110503 | 25 | 139 | 1.6 | 3.2 | 0.00 | 0.00 | 0.00 | 45 | 1016.6 |
| 20260502105933 | 25 | 107 | 4.8 | 12.9 | 0.00 | 0.00 | 0.00 | 45 | 1016.6 |
| 20260502105403 | 25 | 190 | 3.2 | 11.3 | 0.00 | 0.00 | 0.00 | 46 | 1016.9 |
| 20260502104834 | 25 | 181 | 4.8 | 11.3 | 0.00 | 0.00 | 0.00 | 46 | 1017.0 |
| 20260502104303 | 25 | 191 | 0.0 | 0.0 | 0.00 | 0.00 | 0.00 | 46 | 1017.0 |
| 20260502103733 | 24 | 240 | 6.4 | 29.0 | 0.00 | 0.00 | 0.00 | 47 | 1017.0 |
| 20260502103203 | 23 | 274 | 1.6 | 4.8 | 0.00 | 0.00 | 0.00 | 45 | 1017.0 |
| 20260502102633 | 23 | 223 | 6.4 | 11.3 | 0.00 | 0.00 | 0.00 | 48 | 1017.1 |
| 20260502102103 | 23 | 202 | 4.8 | 6.4 | 0.00 | 0.00 | 0.00 | 48 | 1017.2 |
| 20260502101534 | 23 | 220 | 1.6 | 3.2 | 0.00 | 0.00 | 0.00 | 46 | 1017.4 |
| 20260502101003 | 23 | 251 | 1.6 | 8.0 | 0.00 | 0.00 | 0.00 | 46 | 1017.5 |
| 20260502100433 | 23 | 261 | 3.2 | 8.0 | 0.00 | 0.00 | 0.00 | 48 | 1017.6 |
| 20260502091503 | 21 | 234 | 1.6 | 3.2 | 0.00 | 0.00 | 0.00 | 50 | 1018.0 |
| 20260502090933 | 21 | 214 | 3.2 | 8.0 | 0.00 | 0.00 | 0.00 | 49 | 1018.0 |
| 20260502090403 | 21 | 205 | 3.2 | 11.3 | 0.00 | 0.00 | 0.00 | 52 | 1018.0 |
| 20260502071403 | 16 | 252 | 3.2 | 6.4 | 0.00 | 0.00 | 0.00 | 60 | 1018.3 |
| 20260502070833 | 17 | 295 | 1.6 | 8.0 | 0.00 | 0.00 | 0.00 | 59 | 1018.3 |
| 20260502070303 | 17 | 278 | 1.6 | 3.2 | 0.00 | 0.00 | 0.00 | 59 | 1018.3 |
| 20260502065733 | 17 | 272 | 3.2 | 4.8 | 0.00 | 0.00 | 0.00 | 59 | 1018.3 |
| 20260502065203 | 17 | 270 | 4.8 | 14.5 | 0.00 | 0.00 | 0.00 | 59 | 1018.3 |
| 20260502064633 | 16 | 247 | 3.2 | 6.4 | 0.00 | 0.00 | 0.00 | 60 | 1018.3 |
| 20260502064103 | 15 | 281 | 6.4 | 22.5 | 0.00 | 0.00 | 0.00 | 63 | 1018.3 |
| 20260502063533 | 15 | 255 | 3.2 | 9.7 | 0.00 | 0.00 | 0.00 | 63 | 1018.3 |
| 20260502063003 | 15 | 293 | 6.4 | 9.7 | 0.00 | 0.00 | 0.00 | 63 | 1018.3 |
| 20260502062433 | 15 | 268 | 8.0 | 24.1 | 0.00 | 0.00 | 0.00 | 63 | 1018.3 |
| 20260502061903 | 15 | 238 | 4.8 | 20.9 | 0.00 | 0.00 | 0.00 | 63 | 1018.3 |
| 20260502061333 | 15 | 287 | 3.2 | 11.3 | 0.00 | 0.00 | 0.00 | 63 | 1018.4 |
| 20260502060803 | 15 | 210 | 6.4 | 14.5 | 0.00 | 0.00 | 0.00 | 63 | 1018.5 |
| 20260502060233 | 15 | 263 | 6.4 | 9.7 | 0.00 | 0.00 | 0.00 | 63 | 1018.6 |
| 20260502055703 | 15 | 251 | 3.2 | 11.3 | 0.00 | 0.00 | 0.00 | 64 | 1018.6 |
| 20260502055134 | 15 | 251 | 6.4 | 9.7 | 0.00 | 0.00 | 0.00 | 62 | 1018.6 |
| 20260502054603 | 16 | 242 | 4.8 | 8.0 | 0.00 | 0.00 | 0.00 | 62 | 1018.6 |
| 20260502054034 | 15 | 250 | 4.8 | 11.3 | 0.00 | 0.00 | 0.00 | 66 | 1018.5 |
| 20260502053503 | 14 | 245 | 3.2 | 8.0 | 0.00 | 0.00 | 0.00 | 65 | 1018.5 |
| 20260502052933 | 14 | 261 | 4.8 | 12.9 | 0.00 | 0.00 | 0.00 | 65 | 1018.3 |
| 20260502052403 | 14 | 255 | 4.8 | 11.3 | 0.00 | 0.00 | 0.00 | 65 | 1018.3 |
| 20260502051833 | 13 | 261 | 6.4 | 17.7 | 0.00 | 0.00 | 0.00 | 70 | 1018.3 |
| 20260502051303 | 10 | 225 | 3.2 | 12.9 | 0.00 | 0.00 | 0.00 | 74 | 1018.3 |
| 20260502050734 | 10 | 263 | 3.2 | 6.4 | 0.00 | 0.00 | 0.00 | 75 | 1018.2 |
| 20260502050203 | 10 | 256 | 3.2 | 8.0 | 0.00 | 0.00 | 0.00 | 75 | 1018.2 |
| 20260502045633 | 10 | 273 | 3.2 | 6.4 | 0.00 | 0.00 | 0.00 | 75 | 1018.2 |
| 20260502045103 | 10 | 231 | 3.2 | 4.8 | 0.00 | 0.00 | 0.00 | 75 | 1018.2 |
| 20260502044533 | 10 | 255 | 4.8 | 19.3 | 0.00 | 0.00 | 0.00 | 75 | 1018.2 |
| 20260502044003 | 10 | 247 | 1.6 | 3.2 | 0.00 | 0.00 | 0.00 | 76 | 1018.2 |
| 20260502043434 | 9 | 261 | 4.8 | 11.3 | 0.00 | 0.00 | 0.00 | 76 | 1018.2 |
| 20260502042903 | 9 | 251 | 3.2 | 8.0 | 0.00 | 0.00 | 0.00 | 76 | 1018.2 |
| 20260502042334 | 9 | 295 | 1.6 | 8.0 | 0.00 | 0.00 | 0.00 | 77 | 1018.3 |
| 20260502041803 | 9 | 218 | 6.4 | 12.9 | 0.00 | 0.00 | 0.00 | 77 | 1018.3 |
| 20260502041234 | 9 | 269 | 0.0 | 1.6 | 0.00 | 0.00 | 0.00 | 77 | 1018.3 |
| 20260502040703 | 9 | 248 | 1.6 | 6.4 | 0.00 | 0.00 | 0.00 | 77 | 1018.4 |
| 20260502040133 | 9 | 228 | 4.8 | 11.3 | 0.00 | 0.00 | 0.00 | 77 | 1018.4 |
| 20260502035603 | 9 | 271 | 1.6 | 8.0 | 0.00 | 0.00 | 0.00 | 78 | 1018.5 |
| 20260502035034 | 9 | 241 | 3.2 | 6.4 | 0.00 | 0.00 | 0.00 | 78 | 1018.6 |
| 20260502034503 | 9 | 245 | 3.2 | 14.5 | 0.00 | 0.00 | 0.00 | 79 | 1018.5 |
| 20260502033933 | 9 | 220 | 3.2 | 8.0 | 0.00 | 0.00 | 0.00 | 79 | 1018.5 |
| 20260502033403 | 9 | 238 | 3.2 | 6.4 | 0.00 | 0.00 | 0.00 | 78 | 1018.5 |
| 20260502032834 | 9 | 196 | 1.6 | 4.8 | 0.00 | 0.00 | 0.00 | 78 | 1018.7 |
| 20260502032305 | 9 | 244 | 3.2 | 6.4 | 0.00 | 0.00 | 0.00 | 79 | 1018.7 |
| 20260502031733 | 9 | 233 | 1.6 | 6.4 | 0.00 | 0.00 | 0.00 | 79 | 1018.7 |
| 20260502031203 | 9 | 271 | 0.0 | 1.6 | 0.00 | 0.00 | 0.00 | 79 | 1018.8 |
| 20260502030634 | 8 | 238 | 1.6 | 3.2 | 0.00 | 0.00 | 0.00 | 79 | 1018.8 |
| 20260502030103 | 8 | 277 | 1.6 | 3.2 | 0.00 | 0.00 | 0.00 | 79 | 1018.8 |
| 20260502025533 | 8 | 256 | 3.2 | 4.8 | 0.00 | 0.00 | 0.00 | 80 | 1018.8 |
| 20260502025003 | 8 | 232 | 1.6 | 6.4 | 0.00 | 0.00 | 0.00 | 80 | 1018.8 |
| 20260502024433 | 8 | 236 | 3.2 | 9.7 | 0.00 | 0.00 | 0.00 | 80 | 1018.9 |
| 20260502023903 | 8 | 267 | 1.6 | 3.2 | 0.00 | 0.00 | 0.00 | 80 | 1018.9 |
| 20260502023333 | 8 | 233 | 3.2 | 11.3 | 0.00 | 0.00 | 0.00 | 80 | 1018.9 |
| 20260502022804 | 8 | 222 | 1.6 | 1.6 | 0.00 | 0.00 | 0.00 | 80 | 1018.9 |
| 20260502022233 | 8 | 220 | 1.6 | 3.2 | 0.00 | 0.00 | 0.00 | 80 | 1018.9 |
| 20260502021703 | 8 | 214 | 1.6 | 1.6 | 0.00 | 0.00 | 0.00 | 79 | 1018.9 |
| 20260502021133 | 8 | 246 | 3.2 | 11.3 | 0.00 | 0.00 | 0.00 | 79 | 1018.9 |
| 20260502020604 | 8 | 240 | 1.6 | 3.2 | 0.00 | 0.00 | 0.00 | 79 | 1018.9 |
| 20260502015724 | 9 | 230 | 1.6 | 3.2 | 0.00 | 0.00 | 0.00 | 79 | 1018.9 |
| 20260502015155 | 9 | 227 | 1.6 | 4.8 | 0.00 | 0.00 | 0.00 | 79 | 1019.0 |
| 20260502014624 | 9 | 269 | 1.6 | 6.4 | 0.00 | 0.00 | 0.00 | 78 | 1019.0 |
| 20260502014054 | 9 | 259 | 1.6 | 3.2 | 0.00 | 0.00 | 0.00 | 78 | 1019.1 |
| 20260502013524 | 9 | 257 | 0.0 | 0.0 | 0.00 | 0.00 | 0.00 | 78 | 1019.1 |
| 20260502012954 | 9 | 227 | 0.0 | 0.0 | 0.00 | 0.00 | 0.00 | 77 | 1019.2 |
| 20260502012424 | 9 | 261 | 0.0 | 1.6 | 0.00 | 0.00 | 0.00 | 77 | 1019.2 |
| 20260502011854 | 9 | 227 | 0.0 | 1.6 | 0.00 | 0.00 | 0.00 | 77 | 1019.3 |
| 20260502011324 | 10 | 261 | 0.0 | 0.0 | 0.00 | 0.00 | 0.00 | 77 | 1019.3 |
| 20260502010754 | 10 | 227 | 0.0 | 3.2 | 0.00 | 0.00 | 0.00 | 77 | 1019.3 |
| 20260502010110 | 10 | 295 | 1.6 | 3.2 | 0.00 | 0.00 | 0.00 | 77 | 1019.4 |
| 20260502005531 | 10 | 208 | 0.0 | 0.0 | 0.00 | 0.00 | 0.00 | 76 | 1019.5 |
| 20260502005001 | 10 | 182 | 1.6 | 3.2 | 0.00 | 0.00 | 0.00 | 76 | 1019.6 |
| 20260502004431 | 10 | 220 | 1.6 | 3.2 | 0.00 | 0.00 | 0.00 | 76 | 1019.7 |
| 20260502003901 | 10 | 275 | 0.0 | 0.0 | 0.00 | 0.00 | 0.00 | 75 | 1019.7 |
| 20260502003331 | 10 | 227 | 0.0 | 1.6 | 0.00 | 0.00 | 0.00 | 75 | 1019.7 |
| 20260502002801 | 10 | 295 | 0.0 | 1.6 | 0.00 | 0.00 | 0.00 | 74 | 1019.8 |
| 20260502002231 | 10 | 295 | 1.6 | 1.6 | 0.00 | 0.00 | 0.00 | 74 | 1019.8 |
| 20260502001701 | 10 | 295 | 1.6 | 4.8 | 0.00 | 0.00 | 0.00 | 74 | 1019.8 |
| 20260502001131 | 10 | 259 | 0.0 | 0.0 | 0.00 | 0.00 | 0.00 | 73 | 1019.9 |
| 20260502000601 | 10 | 224 | 0.0 | 0.0 | 0.00 | 0.00 | 0.00 | 73 | 1020.0 |
| 20260502000031 | 11 | 181 | 0.0 | 0.0 | 0.00 | 0.00 | 0.00 | 73 | 1020.0 |
| 20260501235501 | 11 | 167 | 0.0 | 0.0 | 0.00 | 0.00 | 0.00 | 73 | 1020.0 |
| 20260501234931 | 11 | 201 | 1.6 | 1.6 | 0.00 | 0.00 | 0.00 | 72 | 1020.1 |
| 20260501234401 | 11 | 283 | 1.6 | 1.6 | 0.00 | 0.00 | 0.00 | 72 | 1020.2 |
| 20260501233832 | 11 | 167 | 1.6 | 1.6 | 0.00 | 0.00 | 0.00 | 72 | 1020.2 |
| 20260501233301 | 11 | 171 | 3.2 | 3.2 | 0.00 | 0.00 | 0.00 | 72 | 1020.2 |
| 20260501232732 | 11 | 182 | 0.0 | 0.0 | 0.00 | 0.00 | 0.00 | 71 | 1020.3 |
| 20260501232202 | 11 | 176 | 1.6 | 4.8 | 0.00 | 0.00 | 0.00 | 71 | 1020.3 |
| 20260501231631 | 11 | 189 | 3.2 | 3.2 | 0.00 | 0.00 | 0.00 | 71 | 1020.3 |
| 20260501231101 | 11 | 205 | 1.6 | 3.2 | 0.00 | 0.00 | 0.00 | 71 | 1020.3 |
| 20260501230531 | 11 | 268 | 3.2 | 3.2 | 0.00 | 0.00 | 0.00 | 70 | 1020.3 |
| 20260501230001 | 11 | 264 | 3.2 | 4.8 | 0.00 | 0.00 | 0.00 | 70 | 1020.3 |
| 20260501225432 | 12 | 335 | 1.6 | 4.8 | 0.00 | 0.00 | 0.00 | 70 | 1020.3 |
| 20260501224901 | 12 | 335 | 3.2 | 4.8 | 0.00 | 0.00 | 0.00 | 70 | 1020.4 |
| 20260501224331 | 12 | 272 | 1.6 | 4.8 | 0.00 | 0.00 | 0.00 | 70 | 1020.4 |
| 20260501223801 | 12 | 330 | 4.8 | 4.8 | 0.00 | 0.00 | 0.00 | 69 | 1020.4 |
| 20260501223231 | 12 | 273 | 3.2 | 8.0 | 0.00 | 0.00 | 0.00 | 67 | 1020.4 |
| 20260501222701 | 12 | 301 | 1.6 | 6.4 | 0.00 | 0.00 | 0.00 | 67 | 1020.4 |
| 20260501222131 | 12 | 294 | 1.6 | 1.6 | 0.00 | 0.00 | 0.00 | 67 | 1020.4 |
| 20260501221602 | 12 | 340 | 1.6 | 3.2 | 0.00 | 0.00 | 0.00 | 67 | 1020.4 |
| 20260501221031 | 12 | 324 | 4.8 | 14.5 | 0.00 | 0.00 | 0.00 | 67 | 1020.5 |
| 20260501220501 | 12 | 340 | 3.2 | 6.4 | 0.00 | 0.00 | 0.00 | 66 | 1020.5 |
| 20260501215931 | 12 | 340 | 0.0 | 0.0 | 0.00 | 0.00 | 0.00 | 66 | 1020.5 |
| 20260501215401 | 13 | 272 | 0.0 | 0.0 | 0.00 | 0.00 | 0.00 | 64 | 1020.5 |
| 20260501214831 | 13 | 272 | 0.0 | 0.0 | 0.00 | 0.00 | 0.00 | 64 | 1020.5 |
| 20260501214301 | 13 | 283 | 0.0 | 0.0 | 0.00 | 0.00 | 0.00 | 64 | 1020.5 |
| 20260501213731 | 13 | 272 | 0.0 | 0.0 | 0.00 | 0.00 | 0.00 | 63 | 1020.5 |
| 20260501213202 | 13 | 272 | 0.0 | 0.0 | 0.00 | 0.00 | 0.00 | 63 | 1020.5 |
| 20260501212631 | 13 | 200 | 0.0 | 0.0 | 0.00 | 0.00 | 0.00 | 63 | 1020.5 |
| 20260501212101 | 13 | 244 | 0.0 | 0.0 | 0.00 | 0.00 | 0.00 | 62 | 1020.5 |
| 20260501211532 | 13 | 273 | 0.0 | 0.0 | 0.00 | 0.00 | 0.00 | 61 | 1020.5 |
| 20260501211001 | 13 | 287 | 0.0 | 0.0 | 0.00 | 0.00 | 0.00 | 61 | 1020.5 |
| 20260501210431 | 13 | 272 | 12.9 | 99.8 | 0.00 | 0.00 | 0.00 | 59 | 1020.5 |
| 20260501205901 | 13 | 187 | 9.7 | 85.3 | 0.00 | 0.00 | 0.00 | 59 | 1020.5 |
| 20260501205331 | 14 | 267 | 1.6 | 85.3 | 0.00 | 0.00 | 0.00 | 59 | 1020.5 |
| 20260501204801 | 14 | 242 | 0.0 | 0.0 | 0.00 | 0.00 | 0.00 | 58 | 1020.5 |
| 20260501204231 | 15 | 253 | 0.0 | 0.0 | 0.00 | 0.00 | 0.00 | 57 | 1020.5 |
| 20260501203701 | 15 | 261 | 0.0 | 0.0 | 0.00 | 0.00 | 0.00 | 57 | 1020.5 |
| 20260501203132 | 15 | 272 | 0.0 | 0.0 | 0.00 | 0.00 | 0.00 | 56 | 1020.5 |
| 20260501202601 | 15 | 234 | 0.0 | 0.0 | 0.00 | 0.00 | 0.00 | 55 | 1020.5 |
| 20260501202032 | 15 | 272 | 0.0 | 0.0 | 0.00 | 0.00 | 0.00 | 55 | 1020.6 |
| 20260501201501 | 15 | 272 | 0.0 | 0.0 | 0.00 | 0.00 | 0.00 | 54 | 1020.6 |
| 20260501200931 | 16 | 301 | 3.2 | 4.8 | 0.00 | 0.00 | 0.00 | 53 | 1020.6 |
| 20260501200401 | 16 | 165 | 0.0 | 0.0 | 0.00 | 0.00 | 0.00 | 53 | 1020.5 |
| 20260501195831 | 16 | 167 | 0.0 | 0.0 | 0.00 | 0.00 | 0.00 | 53 | 1020.5 |
| 20260501195305 | 16 | 295 | 3.2 | 6.4 | 0.00 | 0.00 | 0.00 | 52 | 1020.5 |
| 20260501194731 | 16 | 179 | 0.0 | 0.0 | 0.00 | 0.00 | 0.00 | 52 | 1020.5 |
| 20260501194201 | 16 | 216 | 0.0 | 0.0 | 0.00 | 0.00 | 0.00 | 51 | 1020.5 |
| 20260501193631 | 17 | 245 | 1.6 | 4.8 | 0.00 | 0.00 | 0.00 | 50 | 1020.5 |
| 20260501193101 | 17 | 227 | 1.6 | 3.2 | 0.00 | 0.00 | 0.00 | 49 | 1020.5 |
| 20260501192531 | 17 | 175 | 1.6 | 3.2 | 0.00 | 0.00 | 0.00 | 48 | 1020.5 |
| 20260501192001 | 18 | 179 | 3.2 | 6.4 | 0.00 | 0.00 | 0.00 | 47 | 1020.5 |
| 20260501191431 | 18 | 167 | 4.8 | 8.0 | 0.00 | 0.00 | 0.00 | 47 | 1020.5 |
| 20260501190901 | 18 | 205 | 3.2 | 4.8 | 0.00 | 0.00 | 0.00 | 46 | 1020.5 |
| 20260501190331 | 18 | 193 | 1.6 | 3.2 | 0.00 | 0.00 | 0.00 | 45 | 1020.4 |
| 20260501185801 | 19 | 184 | 3.2 | 4.8 | 0.00 | 0.00 | 0.00 | 43 | 1020.4 |
| 20260501185232 | 19 | 320 | 3.2 | 4.8 | 0.00 | 0.00 | 0.00 | 43 | 1020.5 |
| 20260501184701 | 20 | 295 | 3.2 | 8.0 | 0.00 | 0.00 | 0.00 | 42 | 1020.5 |
| 20260501184131 | 20 | 294 | 0.0 | 0.0 | 0.00 | 0.00 | 0.00 | 37 | 1020.5 |
| 20260501183602 | 20 | 288 | 0.0 | 0.0 | 0.00 | 0.00 | 0.00 | 37 | 1020.4 |
| 20260501183031 | 21 | 277 | 1.6 | 3.2 | 0.00 | 0.00 | 0.00 | 37 | 1020.3 |
| 20260501181931 | 22 | 267 | 3.2 | 6.4 | 0.00 | 0.00 | 0.00 | 36 | 1020.3 |